Location: *
(33.8649°S, 62.1526°E)
Time: 08:36:41
(UTC+00:00)

Cosmos 2333 Rocket - Visible Passes

Search period start: 11 May 2021 00:00
Search period end: 21 May 2021 00:00
Orbit: 838 x 864 km, 70.8° (Epoch: 10 May)

Date Brightness Start Highest point End Pass type
(mag) Time Alt. Az. Time Alt. Az. Time Alt. Az.
11 May 3.7 14:00:39 10° NW 14:05:50 37° WSW 14:11:06 10° S visible
12 May 3.7 13:48:23 10° NW 13:53:34 37° WSW 13:58:49 10° S visible
13 May 3.7 13:36:06 10° NW 13:41:17 37° WSW 13:46:32 10° S visible
14 May 3.7 13:23:50 10° NW 13:29:01 37° WSW 13:34:16 10° S visible
